CMS-01

Last updated on Tue Sep 16 2025 00:02:50 GMT+0000 (Coordinated Universal Time)

1 47256U 20099A 25257.98864325 -.00000180 00000+0 00000+0 0 9998 2 47256 0.0303 110.7546 0006720 145.0506 177.3237 1.00271899 17434
UTC large
Height (km)
Speed (km/s)
/
Latitude / Longitude
Inclination (degrees)
Orbital Period (minutes)
Azimuth
Elevation
Range (km)
Doppler Factor

Next 0 passes for location: London (51.5072 / 0.1276)

Sorry there are no passes over London.